DELTA 1 DEB, 5443

Orbit data source: Space-Track

DELTA 1 DEB, 5443 is space debris in SSO originally from a launch on Fri, 10 Nov 1967 UTC launched from the Air Force Western Test Range (AFWTR). Debris objects in space refer to the collection of defunct objects orbiting the Earth. Examples of debris include non-operational satellites, rocket bodies, and fragments generated from explosions, collisions, or faulty payload assembly.

Loading next visibility...
Identifier
5443, 1967-114E
Orbit
SSO
Country
Flag of USUS
Related business
Manufacturer
Unknown
Mission
Spacecraft
Bus & Motor
Unknown
Mass
Unknown
Launch date (UTC)
1967-11-10 (58 years ago)
Launch vehicle
Unknown
Launch site
Air Force Western Test Range (AFWTR)
Object type
Payload
Rocket body
Debris
Shape & HBR
Unknown shape, 0.1 m
Radar Cross Section
Small (<0.1 m²)

Expand to show TLE details & history
Last TLE update: 14 hours ago

TLE from 14 hours ago
0 DELTA 1 DEB
1 05443U 67114E   25346.68445400 -.00000003  00000-0  23658-3 0  9997
2 05443 101.3875 302.6074 0062490  32.8669 140.0351 12.56804203663820
Epoch: 2025-12-12T16:25Z
TLE epoch observation values (Epoch: 2025-12-12T16:25:36.825Z)
Latitude
6.44082°
Longitude
155.87788°
Altitude
1,475.714 km
Speed
7.109 km/s
True Right ascension
08h 15m 36s
True Declination
6° 24' 22"
Sunlit
Object was in full shadow at epoch
Visualization orbit readout
Latitude
Unknown
Longitude
Unknown
Altitude
Unknown
Speed
Unknown
Apparent Right ascension
Unknown
Apparent Declination
Unknown
Sunlit
N/A
Visualization observer readout
Local Sidereal Time
05:22:27
Azimuth
Unknown
Elevation
Unknown
Doppler factor
Unknown
Orbital elements
Apogee altitude
1,482.496 km
Perigee altitude
1,384.864 km
Semi-major axis
7,811.817 km
Eccentricity
0.00625
Inclination
101.3875°
RAAN
302.6074°
Arg. of periapsis
32.8669°
True anomaly
140.49231°
Mean anomaly
140.0351°
Eccentric anomaly
140.26398°
Mean motion
3.14351 °/min
Orbital period
114.52 mins
BSTAR
0.00023658
Loading maneuver chart data...
Computing Atmospheric mass density...
Loading historical data...
Loading historical data...
Loading historical data...
Loading historical data...
Loading historical data...
Loading historical data...
Loading historical data...
Other satellites on launch #114 in the year 1967 (1967-11-10 UTC)

Documentation

Showing up to 5 results
|